When you browse on this site, cookies collect data to enhance your experience and personalize the content and advertising you see.
Visit our Privacy Policy to learn more. By continuing to use the site, you agree to this use of cookies and data.
  • In Spain
  • List of Countries
  • For 7 days
  • Water Temperature
  • Satellite Maps
  • Weather Map
  • Weather Widgets
  • user-avatar
    Login

    Hourly Weather Lezhe

    Today, 19 July, Friday

    Time Temperature Precipitation Wind Pressure Humidity
    00:00 +20°C° 0 mm 1 mps 737 mmHg 67%
    01:00 +20°C° 0 mm 1 mps 737 mmHg 67%
    02:00 +20°C° 0 mm 1 mps 737 mmHg 67%
    03:00 +19°C° 0 mm 1 mps 737 mmHg 67%
    04:00 +19°C° 0 mm 1 mps 737 mmHg 67%
    05:00 +21°C° 0 mm 1 mps 737 mmHg 62%
    06:00 +23°C° 0 mm 1 mps 737 mmHg 57%
    07:00 +25°C° 0 mm 1 mps 737 mmHg 52%
    08:00 +27°C° 0 mm 1 mps 738 mmHg 48%
    09:00 +28°C° 0 mm 1 mps 738 mmHg 44%
    10:00 +30°C° 0 mm 1 mps 738 mmHg 39%
    11:00 +30°C° 0 mm 2 mps 738 mmHg 38%
    12:00 +31°C° 0 mm 3 mps 738 mmHg 38%
    13:00 +31°C° 0 mm 3 mps 738 mmHg 37%
    14:00 +31°C° 0 mm 3 mps 738 mmHg 39%
    15:00 +30°C° 0 mm 3 mps 738 mmHg 40%
    16:00 +30°C° 0 mm 3 mps 737 mmHg 42%
    17:00 +27°C° 0 mm 2 mps 738 mmHg 50%
    18:00 +25°C° 0 mm 1 mps 738 mmHg 58%
    19:00 +23°C° 0 mm 1 mps 738 mmHg 66%
    20:00 +22°C° 0 mm 1 mps 738 mmHg 67%
    21:00 +22°C° 0 mm 1 mps 739 mmHg 68%
    22:00 +21°C° 0 mm 1 mps 739 mmHg 69%
    23:00 +21°C° 0 mm 1 mps 739 mmHg 70%

    Tomorrow, 20 July, Saturday

    Time Temperature Precipitation Wind Pressure Humidity
    00:00 +20°C° 0 mm 1 mps 739 mmHg 70%
    01:00 +20°C° 0 mm 1 mps 739 mmHg 70%
    02:00 +20°C° 0 mm 1 mps 739 mmHg 71%
    03:00 +20°C° 0 mm 1 mps 739 mmHg 71%
    04:00 +20°C° 0 mm 1 mps 739 mmHg 71%
    05:00 +22°C° 0 mm 1 mps 739 mmHg 66%
    06:00 +23°C° 0 mm 1 mps 739 mmHg 61%
    07:00 +25°C° 0 mm 1 mps 740 mmHg 56%
    08:00 +27°C° 0 mm 1 mps 740 mmHg 51%
    09:00 +30°C° 0 mm 1 mps 740 mmHg 45%
    10:00 +32°C° 0 mm 1 mps 740 mmHg 40%
    11:00 +32°C° 0 mm 2 mps 740 mmHg 39%
    12:00 +32°C° 0 mm 2 mps 740 mmHg 38%
    13:00 +33°C° 0 mm 3 mps 740 mmHg 37%
    14:00 +33°C° 0 mm 3 mps 740 mmHg 40%
    15:00 +31°C° 0 mm 3 mps 739 mmHg 42%
    16:00 +30°C° 0 mm 2 mps 739 mmHg 44%
    17:00 +28°C° 0 mm 2 mps 739 mmHg 51%
    18:00 +26°C° 0 mm 1 mps 740 mmHg 58%
    19:00 +24°C° 0 mm 1 mps 740 mmHg 65%
    20:00 +24°C° 0 mm 1 mps 740 mmHg 66%
    21:00 +23°C° 0 mm 1 mps 740 mmHg 67%
    22:00 +23°C° 0 mm 1 mps 741 mmHg 68%
    23:00 +23°C° 0 mm 1 mps 741 mmHg 68%

    Day after tomorrow, 21 July, Sunday

    Time Temperature Precipitation Wind Pressure Humidity
    00:00 +23°C° 0 mm 1 mps 740 mmHg 68%
    01:00 +22°C° 0 mm 1 mps 740 mmHg 68%
    02:00 +22°C° 0 mm 1 mps 740 mmHg 68%
    03:00 +22°C° 0 mm 1 mps 740 mmHg 68%
    04:00 +22°C° 0 mm 1 mps 740 mmHg 69%
    05:00 +24°C° 0 mm 1 mps 740 mmHg 64%
    06:00 +25°C° 0 mm 1 mps 741 mmHg 59%
    07:00 +27°C° 0 mm 1 mps 741 mmHg 55%
    08:00 +29°C° 0 mm 1 mps 741 mmHg 49%
    09:00 +31°C° 0 mm 1 mps 741 mmHg 44%
    10:00 +34°C° 0 mm 1 mps 741 mmHg 38%
    11:00 +35°C° 0 mm 2 mps 741 mmHg 36%
    12:00 +36°C° 0 mm 2 mps 741 mmHg 34%
    13:00 +36°C° 0 mm 3 mps 741 mmHg 32%
    14:00 +35°C° 0 mm 2 mps 741 mmHg 34%
    15:00 +35°C° 0 mm 2 mps 740 mmHg 35%
    16:00 +34°C° 0 mm 2 mps 740 mmHg 37%
    17:00 +31°C° 0 mm 2 mps 740 mmHg 44%
    18:00 +29°C° 0 mm 1 mps 740 mmHg 52%
    19:00 +26°C° 0 mm 1 mps 740 mmHg 59%
    20:00 +26°C° 0 mm 1 mps 741 mmHg 59%
    21:00 +25°C° 0 mm 1 mps 741 mmHg 60%
    22:00 +25°C° 0 mm 1 mps 741 mmHg 60%
    23:00 +25°C° 0 mm 1 mps 741 mmHg 60%

    22 July, Monday

    Time Temperature Precipitation Wind Pressure Humidity
    00:00 +24°C° 0 mm 2 mps 741 mmHg 61%
    01:00 +24°C° 0 mm 2 mps 741 mmHg 61%
    02:00 +24°C° 0 mm 2 mps 741 mmHg 60%
    03:00 +23°C° 0 mm 2 mps 741 mmHg 60%
    04:00 +23°C° 0 mm 2 mps 741 mmHg 60%
    05:00 +25°C° 0 mm 2 mps 741 mmHg 57%
    06:00 +26°C° 0 mm 2 mps 741 mmHg 53%
    07:00 +28°C° 0 mm 2 mps 741 mmHg 50%
    08:00 +30°C° 0 mm 2 mps 741 mmHg 44%
    09:00 +32°C° 0 mm 2 mps 741 mmHg 38%
    10:00 +35°C° 0 mm 3 mps 741 mmHg 31%
    11:00 +36°C° 0 mm 3 mps 741 mmHg 30%
    12:00 +37°C° 0 mm 3 mps 741 mmHg 28%
    13:00 +37°C° 0 mm 3 mps 741 mmHg 27%
    14:00 +37°C° 0 mm 3 mps 740 mmHg 27%
    15:00 +37°C° 0 mm 3 mps 740 mmHg 28%
    16:00 +37°C° 0 mm 3 mps 740 mmHg 28%
    17:00 +34°C° 0 mm 3 mps 740 mmHg 35%
    18:00 +31°C° 0 mm 3 mps 740 mmHg 42%
    19:00 +28°C° 0 mm 2 mps 740 mmHg 49%
    20:00 +28°C° 0 mm 3 mps 740 mmHg 50%
    21:00 +27°C° 0 mm 3 mps 740 mmHg 51%
    22:00 +26°C° 0 mm 3 mps 740 mmHg 52%
    23:00 +26°C° 0 mm 3 mps 740 mmHg 54%

    23 July, Tuesday

    Time Temperature Precipitation Wind Pressure Humidity
    00:00 +25°C° 0 mm 3 mps 740 mmHg 57%
    01:00 +25°C° 0 mm 3 mps 740 mmHg 60%
    02:00 +24°C° 0 mm 3 mps 739 mmHg 61%
    03:00 +24°C° 0 mm 3 mps 739 mmHg 63%
    04:00 +24°C° 0 mm 3 mps 739 mmHg 65%
    05:00 +25°C° 0 mm 3 mps 739 mmHg 62%
    06:00 +27°C° 0 mm 3 mps 739 mmHg 59%
    07:00 +28°C° 0 mm 3 mps 739 mmHg 55%
    08:00 +30°C° 0 mm 3 mps 739 mmHg 50%
    09:00 +33°C° 0 mm 4 mps 739 mmHg 44%
    10:00 +34°C° 0 mm 4 mps 739 mmHg 39%
    11:00 +35°C° 0 mm 3 mps 739 mmHg 35%
    12:00 +36°C° 0 mm 3 mps 739 mmHg 32%
    13:00 +37°C° 0 mm 3 mps 738 mmHg 29%
    14:00 +37°C° 0 mm 3 mps 738 mmHg 30%
    15:00 +36°C° 0 mm 3 mps 738 mmHg 31%
    16:00 +36°C° 0 mm 4 mps 737 mmHg 32%
    17:00 +34°C° 0 mm 3 mps 737 mmHg 39%
    18:00 +30°C° 0 mm 3 mps 737 mmHg 46%
    19:00 +28°C° 0 mm 2 mps 737 mmHg 53%
    20:00 +27°C° 0 mm 3 mps 737 mmHg 52%
    21:00 +27°C° 0 mm 3 mps 737 mmHg 51%
    22:00 +26°C° 0 mm 4 mps 738 mmHg 50%
    23:00 +25°C° 0 mm 4 mps 737 mmHg 52%

    24 July, Wednesday

    Time Temperature Precipitation Wind Pressure Humidity
    00:00 +25°C° 0 mm 4 mps 737 mmHg 55%
    01:00 +24°C° 0 mm 3 mps 737 mmHg 58%
    02:00 +22°C° 0 mm 4 mps 737 mmHg 61%
    03:00 +22°C° 0 mm 4 mps 736 mmHg 63%
    04:00 +21°C° 0 mm 4 mps 736 mmHg 66%
    05:00 +23°C° 0 mm 4 mps 736 mmHg 62%
    06:00 +25°C° 0 mm 4 mps 736 mmHg 58%
    07:00 +27°C° 0 mm 4 mps 736 mmHg 55%
    08:00 +28°C° 0 mm 4 mps 736 mmHg 49%
    09:00 +30°C° 0 mm 4 mps 736 mmHg 44%
    10:00 +33°C° 0 mm 4 mps 736 mmHg 38%
    11:00 +34°C° 0 mm 4 mps 736 mmHg 36%
    12:00 +34°C° 0 mm 4 mps 736 mmHg 34%
    13:00 +35°C° 0 mm 4 mps 736 mmHg 31%
    14:00 +35°C° 0 mm 4 mps 735 mmHg 32%
    15:00 +35°C° 0 mm 3 mps 735 mmHg 33%
    16:00 +34°C° 0 mm 3 mps 735 mmHg 33%
    17:00 +31°C° 0 mm 3 mps 735 mmHg 40%
    18:00 +29°C° 0 mm 2 mps 735 mmHg 47%
    19:00 +27°C° 0 mm 2 mps 735 mmHg 54%
    20:00 +26°C° 0 mm 2 mps 735 mmHg 53%
    21:00 +25°C° 0 mm 3 mps 735 mmHg 52%
    22:00 +25°C° 0 mm 3 mps 735 mmHg 52%
    23:00 +24°C° 0 mm 3 mps 735 mmHg 54%
    Show more